Regional Weather Roundup
Issued by NWS Little Rock, AR

Home | Current Version | Previous Version | Graphics & Text | Print | Product List | Glossary On
Versions: 1 2 3 4 5 6 7 8 9 10 11 12 13 14 15 16 17 18 19 20 21 22 23 24 25 26 27 28 29 30 31 32 33 34 35 36 37 38 39 40 41 42 43 44 45 46 47 48 49 50
000
ASUS44 KLZK 311205
RWRLZK

WEATHER ROUNDUP FOR ARKANSAS
NATIONAL WEATHER SERVICE LITTLE ROCK AR
700 AM CDT THU JUL 31 2014

NOTE: "FAIR" INDICATES FEW OR NO CLOUDS BELOW 12,000 FEET WITH NO
SIGNIFICANT WEATHER AND/OR OBSTRUCTIONS TO VISIBILITY.

ARZ001-003-010-029-311300-
NORTHWEST ARKANSAS

CITY           SKY/WX    TMP DP  RH WIND       PRES   REMARKS
FAYETTEVILLE   LGT RAIN  65  65 100 S3        30.09F FOG
6HR MIN TEMP:  65; 6HR MAX TEMP:  66; 6HR PCP:  0.04;

FORT SMITH     LGT RAIN  67  64  90 SE7       30.07S FOG
6HR MIN TEMP:  67; 6HR MAX TEMP:  69; 6HR PCP:  0.17;

HARRISON       FOG       65  65 100 CALM      30.10F VSB 1/2
6HR MIN TEMP:  65; 6HR MAX TEMP:  66;

BENTONVILLE    CLOUDY    66  63  88 CALM      30.10S
6HR MIN TEMP:  66; 6HR MAX TEMP:  66;

ROGERS         CLOUDY    65  63  93 NE3       30.11S
6HR MIN TEMP:  65; 6HR MAX TEMP:  66;

SILOAM SPGS    CLOUDY    66  61  82 E3        30.10S
6HR MIN TEMP:  66; 6HR MAX TEMP:  66; 6HR PCP:  0.11;

HIGHFILL       CLOUDY    66  66 100 CALM      30.09S
6HR MIN TEMP:  66; 6HR MAX TEMP:  67; 6HR PCP:  0.02;

SPRINGDALE     CLOUDY    66  64  94 NE3       30.11S
$$

ARZ004-005-016-311300-
NORTH CENTRAL ARKANSAS

CITY           SKY/WX    TMP DP  RH WIND       PRES   REMARKS
BATESVILLE     CLOUDY    66  64  94 CALM      30.09S
6HR MIN TEMP:  66; 6HR MAX TEMP:  68; 6HR PCP:  0.30;

FLIPPIN        CLOUDY    66  66 100 CALM      30.10S
6HR MIN TEMP:  66; 6HR MAX TEMP:  66; 6HR PCP:  0.01;

MTN HOME       LGT RAIN  67  66  97 CALM      30.09S FOG
6HR MIN TEMP:  66; 6HR MAX TEMP:  67; 6HR PCP:  0.01;

$$

ARZ040-041-311300-
WEST CENTRAL ARKANSAS

CITY           SKY/WX    TMP DP  RH WIND       PRES   REMARKS
MENA           CLOUDY    66  64  94 CALM      30.09S
MOUNT IDA      LGT RAIN  65  64  97 CALM      30.07F FOG
6HR MIN TEMP:  65; 6HR MAX TEMP:  65; 6HR PCP:  0.49;

$$

ARZ009-017-025-026-028-311300-
NORTHEAST ARKANSAS

CITY           SKY/WX    TMP DP  RH WIND       PRES   REMARKS
JONESBORO      LGT RAIN  68  66  93 SE3       30.09R FOG
6HR MIN TEMP:  67; 6HR MAX TEMP:  70;

NEWPORT        RAIN      66  66 100 S7        30.11R FOG
6HR MIN TEMP:  67; 6HR MAX TEMP:  69; 6HR PCP:  0.42;

WALNUT RIDGE   CLOUDY    68  64  88 S3        30.08S
6HR MIN TEMP:  68; 6HR MAX TEMP:  70; 6HR PCP:  0.05;

BLYTHEVILLE    CLOUDY    70  68  93 CALM      30.10R
6HR MIN TEMP:  70; 6HR MAX TEMP:  71; 6HR PCP:  0.02;

$$

ARZ022-023-033-042-044-311300-
CENTRAL ARKANSAS

CITY           SKY/WX    TMP DP  RH WIND       PRES   REMARKS
LITTLE ROCK    CLOUDY    68  65  90 CALM      30.10R
6HR MIN TEMP:  67; 6HR MAX TEMP:  70; 6HR PCP:  0.15;

N LITTLE ROCK    N/A     67  67 100 E3        30.10R
6HR MIN TEMP:  66; 6HR MAX TEMP:  67;

JACKSONVILLE   LGT RAIN  68  66  94 CALM      30.10R FOG
                                      6HR PCP:  0.30;

SEARCY         CLOUDY    67  67 100 CALM      30.11R FOG
6HR MIN TEMP:  67; 6HR MAX TEMP:  67; 6HR PCP:  0.24;

HOT SPRINGS    LGT RAIN  66  64  93 SE3       30.10R
6HR MIN TEMP:  66; 6HR MAX TEMP:  67; 6HR PCP:  0.30;

RUSSELLVILLE   CLOUDY    67  65  93 CALM      30.09R FOG
6HR MIN TEMP:  66; 6HR MAX TEMP:  69; 6HR PCP:  0.22;

CLINTON        CLOUDY    66  66 100 CALM      30.10S
$$

ARZ036-311300-
EAST ARKANSAS

CITY           SKY/WX    TMP DP  RH WIND       PRES   REMARKS
WEST MEMPHIS   CLOUDY    69  69 100 CALM      30.09S
6HR MIN TEMP:  68; 6HR MAX TEMP:  70;

$$

ARZ050-053-066-070-073-311300-
SOUTHWEST ARKANSAS

CITY           SKY/WX    TMP DP  RH WIND       PRES   REMARKS
ARKADELPHIA    RAIN      67  67 100 NE3       30.09S FOG
6HR MIN TEMP:  67; 6HR MAX TEMP:  69; 6HR PCP:  0.38;

CAMDEN         RAIN      66  64  94 CALM      30.09R
TEXARKANA      RAIN      66  66 100 E6        30.06F FOG
6HR MIN TEMP:  66; 6HR MAX TEMP:  69; 6HR PCP:  0.28;

EL DORADO      LGT RAIN  67  66  97 N6        30.07S
6HR MIN TEMP:  67; 6HR MAX TEMP:  70; 6HR PCP:  0.04;

DE QUEEN       LGT RAIN  65  64  97 VRB7      30.04F FOG
6HR MIN TEMP:  65; 6HR MAX TEMP:  67; 6HR PCP:  2.24;

$$

ARZ056-057-069-311300-
SOUTHEAST ARKANSAS

CITY           SKY/WX    TMP DP  RH WIND       PRES   REMARKS
PINE BLUFF     LGT RAIN  67  65  93 E7        30.09R
6HR MIN TEMP:  66; 6HR MAX TEMP:  68; 6HR PCP:  0.23;

STUTTGART      CLOUDY    66  64  94 E5        30.10S
6HR MIN TEMP:  66; 6HR MAX TEMP:  70; 6HR PCP:  0.22;

MONTICELLO     LGT RAIN  68  66  93 E7        30.08S FOG
6HR MIN TEMP:  68; 6HR MAX TEMP:  70; 6HR PCP:  0.04;


$$





USA.gov is the U.S. government's official web portal to all federal, state and local government web resources and services.